SUNDSVALL-HARNOSAND FLY current weather conditions

sailwx.info

Air temperature -4.0° C
Dewpoint -5.0° C

Last reported at 2015-Mar-05 08:20 UTC.
Time now 2015-Mar-05 10:30 UTC

Location: N 62°32' E 017°27'.
View on Google Maps.

See reports from other nearby stations

  
Tides and Currents Weather Stations Pressure Air Temp Water Temp Dewpoint Dewpoint Depression Visibility Wind Speed Wind Dir Waves Ship Positions
date/time (UTC)wind fromknots sea level pressurealtimeterstation pressurevisibilityair tempwater tempwave heightnotes
2015-Mar-05 09:20 -2.0
2015-Mar-05 08:50 -3.0
2015-Mar-05 08:20 -4.0
2015-Mar-05 07:50 -4.0
2015-Mar-05 07:20 -5.0
2015-Mar-05 06:50 340 2 -7.0
2015-Mar-05 06:20 -7.0
2015-Mar-05 05:50 -7.0
2015-Mar-05 05:20 -7.0
2015-Mar-05 04:50 5.4-7.0
2015-Mar-05 04:20 5.4-7.0
2015-Mar-05 03:50 5.4-7.0
2015-Mar-05 03:20 5.4-7.0
2015-Mar-05 02:50 5.4-6.0
2015-Mar-05 02:20 310 2 5.4-5.0
2015-Mar-05 01:50 350 2 5.4-5.0
2015-Mar-05 01:20 280 2 5.4-5.0
2015-Mar-05 00:50 5.4-5.0
2015-Mar-05 00:20 5.4-5.0
2015-Mar-04 23:50 5.4-5.0
2015-Mar-04 23:20 5.4-6.0
2015-Mar-04 22:50 -5.0
2015-Mar-04 22:20 -5.0
2015-Mar-04 21:50 -5.0
2015-Mar-04 21:20 340 2 -4.0
2015-Mar-04 20:50 5.4-4.0
2015-Mar-04 20:20 310 2 5.4-3.0
2015-Mar-04 19:50 -3.0
2015-Mar-04 19:20 -3.0
2015-Mar-04 18:50 360 1 5.4-3.0
2015-Mar-04 18:20 320 2 5.4-3.0
2015-Mar-04 17:50 -3.0
2015-Mar-04 17:20 -2.0
2015-Mar-04 16:50 -1.0
2015-Mar-04 16:20 280 2 1.0
2015-Mar-04 15:50 290 3 1.0
2015-Mar-04 15:20 300 5 5.4 2.0
2015-Mar-04 14:50 330 8 5.4 2.0
2015-Mar-04 14:20 290 5 5.4 2.0
2015-Mar-04 13:50 340 7 5.4 2.0
2015-Mar-04 13:20 310 5 5.4 3.0
2015-Mar-04 12:50 300 4 5.4 2.0
2015-Mar-04 12:20 340 2 5.4 2.0
2015-Mar-04 11:50 5.4 2.0
2015-Mar-04 11:20 5.4 2.0
2015-Mar-04 10:50 2.0
2015-Mar-04 10:20 1.0
2015-Mar-04 09:50 1.0
2015-Mar-04 09:20 -0.0
2015-Mar-04 08:50 5.4-1.0
2015-Mar-04 08:20 330 1 5.4-1.0
2015-Mar-04 07:50 0.2-2.0 Freezing fog.
2015-Mar-04 07:20 0.1-2.0 Freezing fog.
2015-Mar-04 06:50 3.8-2.0 Mist. Patches of fog.
2015-Mar-04 06:20 3.8-2.0 Mist. Patches of fog.
2015-Mar-04 05:50 3.8-2.0 Mist.
2015-Mar-04 05:20 1.9-2.0 Mist.
2015-Mar-04 04:50 2.7-2.0
2015-Mar-04 04:20 0.1-1.0
2015-Mar-04 03:50 0.2-1.0 Freezing fog.
2015-Mar-04 03:20 1.4-1.0 Mist.
2015-Mar-04 02:50 1.0-1.0 Mist.
2015-Mar-04 02:20 2.7-1.0 Snow grains.
2015-Mar-04 01:50 2.7-1.0 Snow grains.
2015-Mar-04 01:20 2.7-1.0 Snow grains.
2015-Mar-04 00:50 2.1-1.0 Light snow.
2015-Mar-04 00:20 260 1 2.7-1.0 Mist.
2015-Mar-03 23:50 3.2-1.0 Mist.
2015-Mar-03 23:20 320 2 3.2-1.0 Mist.
2015-Mar-03 22:50 2.2-0.0 Mist.
2015-Mar-03 22:20 300 3 3.2-0.0 Mist.
2015-Mar-03 21:50 310 2 2.2-0.0
2015-Mar-03 21:20 350 2 1.6-0.0 Light drizzle.
2015-Mar-03 20:50 3.2-0.0 Light drizzle.
2015-Mar-03 20:20 1.9-0.0 Light rain.
2015-Mar-03 19:50 1.7-0.0 Light rain.
2015-Mar-03 19:20 160 2 1.4-0.0 Light rain.
2015-Mar-03 18:50 140 2 4.9-0.0 Mist.
2015-Mar-03 18:20 100 3 5.4 1.0
2015-Mar-03 17:50 110 3 5.4 1.0
2015-Mar-03 17:20 160 4 5.4-0.0
2015-Mar-03 16:50 140 4 5.4-0.0
2015-Mar-03 16:20 160 4 3.2-0.0 Mist.
2015-Mar-03 15:50 150 5 2.2-0.0 Mist.
2015-Mar-03 15:20 160 5 1.0
2015-Mar-03 14:50 150 4 1.0
2015-Mar-03 14:20 150 6 2.0
2015-Mar-03 13:50 170 7 2.0
2015-Mar-03 13:20 150 7 2.0
2015-Mar-03 12:50 150 3 3.0
2015-Mar-03 12:20 140 3 3.0
2015-Mar-03 11:50 4.0
2015-Mar-03 11:20 5.0
2015-Mar-03 10:50 350 3 2.0
2015-Mar-03 10:20 3.0